Tracking 21679 objects as of 30-Oct-2020
HD Live streaming from Space Station
objects crossing your sky now

GORIZONT 31

Track GORIZONT 31 now!
GORIZONT 31 is classified as:


NORAD ID: 23775
Int'l Code: 1996-005A
Perigee: 35,834.4 km
Apogee: 35,972.9 km
Inclination: 14.5 °
Period: 1,441.7 minutes
Semi major axis: 42274 km
RCS: 12.5892 m2 (large)
Launch date: January 25, 1996
Source: Commonwealth of Independent States (former USSR) (CIS)
Launch site: TYURATAM MISSILE AND SPACE COMPLEX (TTMTR)

Telecommunications; telephone and television communications to the Russian republic.
aabbcc
Your satellite tracking list
Your tracking list is empty




NASA's NSSDC Master Catalog

Two Line Element Set (TLE):
1 23775U 96005A   20303.73283619 -.00000075 +00000-0 +00000-0 0  9994
2 23775 014.5066 010.4410 0016388 189.8535 182.2970 00.99880977090503
Source of the keplerian elements: AFSPC